Home > Weather > Fort Lauderdale > Past weeks

Flag for U.S.A. Weather for the Past 2 Weeks in Fort Lauderdale, Florida, U.S.A.

Now
69 °F

Scattered clouds.


Feels Like: 69 °F
Forecast: 61 / 71 °F
Wind: 16 mph from East

Location: Fort Lauderdale / Hollywood International Airport

Current Time: Feb 14, 2016 at 10:31:53 AM

Latest Report: Feb 14, 2016 at 9:53 AM


Visibility: 10 mi

Pressure: 30.22 "Hg

Humidity: 55%

Dew point: 52 °F

Location of Fort LauderdaleLocation

Historic Weather in Fort Lauderdale — Graph

°F

Fort Lauderdale Temperature Yesterday

Maximum temperature yesterday: 76 °F (at 2:53 PM)
Minimum temperature yesterday: 55 °F (at 4:53 AM)
Average temperature yesterday: 65 °F

High & Low Weather Summary for the Past Weeks

 TemperatureHumidityPressure
High81 °F (Feb 2, 12:53 PM)97% (Feb 1, 6:53 AM)30.34 "Hg (Feb 1, 6:53 AM)
Low48 °F (Feb 8, 6:53 AM)25% (Feb 11, 2:53 PM)29.93 "Hg (Feb 9, 3:53 AM)
Average66 °F70%30.11 "Hg
* Reported Jan 30 8:53 AM — Feb 14 8:53 AM, Fort Lauderdale, Weather by CustomWeather, © 2016

Note: Actual official high and low records may vary slightly from our data, if they occured in-between our weather recording intervals... More about our weather records

Advertising

Fort Lauderdale Weather History for the Previous 24 Hours

 ConditionsComfort  
Time TempWeatherWind HumidityBarometerVisibility
8:53 AM
Sun, Feb 14
67 °FScattered clouds.13 mph61%30.20 "Hg10 mi
7:53 AM60 °FScattered clouds.5 mph75%30.19 "Hg10 mi
6:53 AM56 °FPassing clouds.5 mph81%30.18 "Hg10 mi
5:53 AM57 °FPassing clouds.8 mph81%30.16 "Hg10 mi
4:53 AM57 °FPassing clouds.7 mph81%30.15 "Hg10 mi
3:53 AM58 °FPassing clouds.6 mph78%30.16 "Hg10 mi
2:53 AM59 °FPassing clouds.7 mph75%30.16 "Hg10 mi
1:53 AM59 °FPassing clouds.8 mph78%30.17 "Hg10 mi
12:53 AM60 °FPassing clouds.7 mph78%30.19 "Hg10 mi
11:53 PM
Sat, Feb 13
61 °FPassing clouds.6 mph78%30.19 "Hg10 mi
10:53 PM62 °FClear.5 mph78%30.20 "Hg10 mi
9:53 PM63 °FPassing clouds.7 mph73%30.20 "Hg10 mi
8:53 PM64 °FClear.6 mph73%30.19 "Hg10 mi
7:53 PM66 °FClear.3 mph59%30.18 "Hg10 mi
6:53 PM68 °FPassing clouds.6 mph49%30.17 "Hg10 mi
5:53 PM71 °FPassing clouds.10 mph45%30.16 "Hg10 mi
4:53 PM75 °FPassing clouds.7 mph40%30.16 "Hg10 mi
3:53 PM75 °FPassing clouds.12 mph43%30.15 "Hg10 mi
2:53 PM76 °FScattered clouds.8 mph47%30.15 "Hg10 mi
1:53 PM74 °FPassing clouds.10 mph53%30.16 "Hg10 mi
12:53 PM72 °FScattered clouds.9 mph59%30.19 "Hg10 mi
11:53 AM72 °FScattered clouds.10 mph59%30.23 "Hg10 mi
10:53 AM70 °FPassing clouds.13 mph64%30.24 "Hg10 mi
Weather by CustomWeather, © 2016

See weather overviewHow to use our weather pages